This is the latest recevied weather packets stored in our database for station/object DL6MAA-11. If no packets are shown the sender has not sent any weather packets the latest 10 day(s).
| Time | Temp. | Humidity | Pressure | Rain* | Wind** | Luminosity | Snow |
|---|---|---|---|---|---|---|---|
| 1777481538 | 15.56° C | 36% | 1017.6 hPa | 0 mm | - | 28 W/m² | - |
| 1777481243 | 16.11° C | 36% | 1017.6 hPa | 0 mm | - | 33 W/m² | - |
| 1777480930 | 16.11° C | 35% | 1017.4 hPa | 0 mm | - | 32 W/m² | - |
| 1777480635 | 16.11° C | 36% | 1017.4 hPa | 0 mm | - | 125 W/m² | - |
| 1777480336 | 16.11° C | 36% | 1017.4 hPa | 0 mm | - | 33 W/m² | - |
| 1777480049 | 16.67° C | 36% | 1017.4 hPa | 0 mm | - | 30 W/m² | - |
| 1777479737 | 16.67° C | 35% | 1017.4 hPa | 0 mm | - | 53 W/m² | - |
| 1777479439 | 16.67° C | 36% | 1017.4 hPa | 0 mm | - | 172 W/m² | - |
| 1777479146 | 17.22° C | 35% | 1017.2 hPa | 0 mm | - | 225 W/m² | - |
| 1777478830 | 17.22° C | 35% | 1017.2 hPa | 0 mm | - | 234 W/m² | - |
| 1777478538 | 17.22° C | 34% | 1017.2 hPa | 0 mm | - | 243 W/m² | - |
| 1777478236 | 17.22° C | 35% | 1017.1 hPa | 0 mm | - | 251 W/m² | - |
| 1777477943 | 17.22° C | 36% | 1017.1 hPa | 0 mm | - | 260 W/m² | - |
| 1777477636 | 17.22° C | 36% | 1017.1 hPa | 0 mm | - | 274 W/m² | - |
| 1777477348 | 17.22° C | 35% | 1017 hPa | 0 mm | - | 278 W/m² | - |
| 1777477035 | 17.22° C | 34% | 1017 hPa | 0 mm | - | 288 W/m² | - |
| 1777476738 | 17.78° C | 35% | 1017 hPa | 0 mm | - | 299 W/m² | - |
| 1777476435 | 17.78° C | 35% | 1017.9 hPa | 0 mm | - | 308 W/m² | - |
| 1777476143 | 17.78° C | 36% | 1017.9 hPa | 0 mm | - | 316 W/m² | - |
| 1777475831 | 17.78° C | 35% | 1017.9 hPa | 0 mm | - | 325 W/m² | - |
| 1777475539 | 17.78° C | 35% | 1017.7 hPa | 0 mm | - | 334 W/m² | - |
| 1777475248 | 17.78° C | 35% | 1017.7 hPa | 0 mm | - | 339 W/m² | - |
| 1777474947 | 17.78° C | 36% | 1017.7 hPa | 0 mm | - | 350 W/m² | - |
| 1777474632 | 18.33° C | 35% | 1017.8 hPa | 0 mm | - | 359 W/m² | - |
| 1777474340 | 18.33° C | 34% | 1017.8 hPa | 0 mm | - | 367 W/m² | - |
* Rain since midnight (hover to see other rain measurements)
** Current wind speed in m/s (hover to see current wind gust speed)